Der Flugplatz Krefeld-Egelsberg
  • ICAO-Code: EDLK
  • Koordinaten: N 51° 23,10'    E 06° 35,26'
  • Höhe ü. NN: 141 ft / 43 m
  • Platzfrequenz: 120.675 MHz - Krefeld Info
  • Landebahn: 06 - 24
  • Abmessungen: 640 x 30m
  • Belag: Gras
  • Tragfähigkeit: 2000 kg MTW; HEL 5700 kg MTW
  • Tankstelle: Nein
  • Betriebszeit: PPR
  • PPR-Request: Tel: 02151/ 560133, 368400
  • Landegebühr: Private Flüge 5 €, für gewerbliche Flüge wird eine gesonderte Gebühr erhoben

 


EDLK

Wetterinformation

[Quelle: ADDS]
METAR
EDDL 221950Z 27004KT CAVOK 16/09 Q1019 NOSIG =
EDDL 221700Z 2218/2324 VRB02KT CAVOK BECMG 2303/2306 15006KT BECMG 2308/2310 23007KT BECMG 2318/2321 VRB03KT
TAF
EDDL 221700Z 2218/2324 VRB02KT CAVOK BECMG 2303/2306 15006KT BECMG 2308/2310 23007KT BECMG 2318/2321 VRB03KT =
Lade Webcam-Bild
Cookies erleichtern die Bereitstellung unserer Dienste. Mit der Nutzung unserer Dienste erklären Sie sich damit einverstanden, dass wir Cookies verwenden.